Weather History for Douglas Bisbee, AZ

Change the Weather History Date:

Tuesday, October 1, 2013

  Actual Average Record
Temperature  
Mean Temperature 66 °F 70 °F  
Max Temperature 88 °F 86 °F 95 °F (2003)
Min Temperature 44 °F 54 °F 42 °F (1965)
Degree Days  
Heating Degree Days 0 0  
Month to date heating degree days 0 0  
Since 1 July heating degree days 0 2  
Cooling Degree Days 1 5  
Month to date cooling degree days 1 5  
Year to date cooling degree days 1816 1756  
Growing Degree Days 16 (Base 50)    
Moisture  
Dew Point 33 °F    
Average Humidity 37    
Maximum Humidity 60    
Minimum Humidity 13    
Precipitation  
Precipitation 0.00 in 0.04 in 0.77 in (1990)
Month to date precipitation 0.00 0.04  
Year to date precipitation 17.11 10.59  
Snow  
Snow 0.00 in 0.00 in - ()
Month to date snowfall 0.0 0.0  
Since 1 July snowfall 0.0 0.0  
Snow Depth 0.00 in    
Sea Level Pressure  
Sea Level Pressure 29.89 in    
Wind  
Wind Speed 5 mph (WNW)    
Max Wind Speed 14 mph    
Max Gust Speed 18 mph    
Visibility 10 miles    
Events      
T = Trace of Precipitation, MM = Missing Value Source: NWS Daily Summary

Daily Weather History Graph

Daily Weather History Graph

Search for Another Location

Airport:

Trip Planner

Search our weather history database for the weather conditions in past years. The results will help you decide how hot, cold, wet, or windy it might be!

Date:

Astronomy

Oct. 01, 2013 Rise Set
Actual Time 6:12 AM MST 6:03 PM MST
Civil Twilight 5:48 AM MST 6:27 PM MST
Nautical Twilight 5:19 AM MST 6:55 PM MST
Astronomical Twilight 4:51 AM MST 7:23 PM MST
Moon 3:00 AM MST (10/1) 3:59 PM MST (10/1)
Length of Visible Light 12h 39m
Length of Day
11h 50m
Waning Crescent, 11% of the Moon is Illuminated
Oct 1
Waning Crescent
Oct 4
New
Oct 11
First Quarter
Oct 18
Full
Oct 26
Last Quarter

Hourly Weather History & Observations

Time (MST) Temp. Dew Point Humidity Pressure Visibility Wind Dir Wind Speed Gust Speed Precip Events Conditions
12:56 AM 55.9 °F 33.1 °F 42% 29.87 in 10.0 mi North 9.2 mph - N/A   Clear
1:56 AM 50.0 °F 34.0 °F 54% 29.89 in 10.0 mi NW 4.6 mph - N/A   Clear
2:56 AM 50.0 °F 34.0 °F 54% 29.88 in 10.0 mi NNE 3.5 mph - N/A   Clear
3:56 AM 50.0 °F 33.1 °F 52% 29.88 in 10.0 mi East 5.8 mph - N/A   Clear
4:56 AM 50.0 °F 30.9 °F 48% 29.90 in 10.0 mi Calm Calm - N/A   Clear
5:56 AM 46.0 °F 33.1 °F 61% 29.94 in 10.0 mi Calm Calm - N/A   Clear
6:56 AM 48.9 °F 33.1 °F 54% 29.96 in 10.0 mi Calm Calm - N/A   Clear
7:56 AM 61.0 °F 33.1 °F 35% 29.97 in 10.0 mi Calm Calm - N/A   Clear
8:56 AM 69.1 °F 30.9 °F 24% 29.96 in 10.0 mi Calm Calm - N/A   Clear
9:56 AM 75.9 °F 30.9 °F 19% 29.95 in 10.0 mi Calm Calm - N/A   Clear
10:56 AM 79.0 °F 28.9 °F 16% 29.94 in 10.0 mi Variable 3.5 mph - N/A   Clear
11:56 AM 82.9 °F 30.9 °F 15% 29.91 in 10.0 mi WSW 8.1 mph - N/A   Clear
12:56 PM 84.9 °F 32.0 °F 15% 29.88 in 10.0 mi NW 3.5 mph - N/A   Clear
1:56 PM 86.0 °F 30.9 °F 14% 29.87 in 10.0 mi West 9.2 mph 18.4 mph N/A   Clear
2:56 PM 87.1 °F 33.1 °F 15% 29.85 in 10.0 mi SW 9.2 mph - N/A   Clear
3:56 PM 87.1 °F 33.1 °F 15% 29.83 in 10.0 mi WNW 8.1 mph - N/A   Clear
4:56 PM 84.9 °F 33.1 °F 16% 29.84 in 10.0 mi WSW 9.2 mph - N/A   Clear
5:56 PM 79.0 °F 34.0 °F 20% 29.86 in 10.0 mi SW 4.6 mph - N/A   Clear
6:56 PM 75.0 °F 35.1 °F 23% 29.87 in 10.0 mi West 4.6 mph - N/A   Clear
7:56 PM 71.1 °F 35.1 °F 27% 29.88 in 10.0 mi West 6.9 mph - N/A   Clear
8:56 PM 66.0 °F 36.0 °F 33% 29.88 in 10.0 mi NNW 5.8 mph - N/A   Clear
9:56 PM 64.0 °F 37.0 °F 37% 29.89 in 10.0 mi Calm Calm - N/A   Clear
10:56 PM 61.0 °F 37.9 °F 42% 29.89 in 10.0 mi East 6.9 mph - N/A   Clear
11:56 PM 60.1 °F 39.0 °F 46% 29.89 in 10.0 mi East 4.6 mph - N/A   Clear